This is the latest recevied weather packets stored in our database for station/object NR6G-5. If no packets are shown the sender has not sent any weather packets the latest 10 day(s).
| Time | Temp. | Humidity | Pressure | Rain* | Wind** | Luminosity | Snow |
|---|---|---|---|---|---|---|---|
| 1777711489 | 20° C | 55% | 1010.4 hPa | 0 mm | - | - | - |
| 1777711186 | 19.44° C | 57% | 1010.4 hPa | 0 mm | - | - | - |
| 1777710589 | 18.89° C | 58% | 1010.6 hPa | 0 mm | - | - | - |
| 1777709990 | 18.89° C | 61% | 1010.7 hPa | 0 mm | - | - | - |
| 1777709386 | 18.89° C | 61% | 1010.7 hPa | 0 mm | - | - | - |
| 1777708786 | 18.89° C | 61% | 1010.6 hPa | 0 mm | - | - | - |
| 1777708490 | 18.89° C | 60% | 1010.6 hPa | 0 mm | - | - | - |
| 1777708190 | 18.33° C | 63% | 1010.6 hPa | 0 mm | - | - | - |
| 1777707890 | 18.33° C | 63% | 1010.7 hPa | 0 mm | - | - | - |
| 1777707589 | 18.33° C | 63% | 1010.7 hPa | 0 mm | - | - | - |
| 1777707289 | 18.33° C | 63% | 1010.6 hPa | 0 mm | - | - | - |
| 1777706990 | 18.33° C | 64% | 1010.6 hPa | 0 mm | - | - | - |
| 1777706691 | 18.33° C | 64% | 1010.6 hPa | 0 mm | - | - | - |
| 1777706387 | 18.89° C | 63% | 1010.7 hPa | 0 mm | - | - | - |
| 1777706089 | 18.89° C | 63% | 1010.7 hPa | 0 mm | - | - | - |
| 1777705790 | 18.89° C | 62% | 1010.7 hPa | 0 mm | - | - | - |
| 1777705489 | 19.44° C | 60% | 1010.6 hPa | 0 mm | - | - | - |
| 1777704889 | 20.56° C | 55% | 1010.5 hPa | 0 mm | - | - | - |
| 1777704292 | 21.11° C | 51% | 1010.3 hPa | 0 mm | - | - | - |
| 1777703985 | 21.11° C | 52% | 1010.3 hPa | 0 mm | - | - | - |
| 1777703685 | 21.11° C | 52% | 1010.2 hPa | 0 mm | - | - | - |
| 1777703385 | 21.67° C | 51% | 1010.2 hPa | 0 mm | - | - | - |
| 1777703085 | 21.67° C | 51% | 1010.2 hPa | 0 mm | - | - | - |
| 1777702786 | 21.11° C | 52% | 1010.2 hPa | 0 mm | - | - | - |
| 1777702485 | 21.11° C | 52% | 1010.1 hPa | 0 mm | - | - | - |
* Rain latest hour (hover to see other rain measurements)
** Current wind speed in m/s (hover to see current wind gust speed)